Weather in Verhnyaya Sysert'

Russia / Sverdlovsk Oblast     56°26′16″N   60°45′18″E
temp.,
°C
wind,
m/s
gust,
m/s
humid.,
%
clouds,
%
prec.,
mm/h
press.,
hPa
HPBL,
m
14 may, fri
fri1423:00+18w11525 0.0 102511
02:00+16wsw11555 0.0 102511
05:00+15wsw11582 0.0 102611
08:00+21wsw12435 0.0 1026215
11:00+27w24305 0.0 10252258
14:00+29w45235 0.0 10243158
17:00+29w45225 0.0 10233191
20:00+23wsw23400 0.0 102238
15 may, sat
sat1523:00+18w255112 0.0 102376
02:00+16wsw26535 0.0 1023108
05:00+15wsw28605 0.0 1023133
08:00+21wsw494763 0.0 1023359
11:00+27wsw57284 0.0 10211531
14:00+28w692536 0.0 10202435
17:00+28w692820 0.0 10192326
20:00+24wsw4104226 0.0 1019477
16 may, sun
sun1623:00+20w3135296 0.0 1019434
02:00+19w4155378 0.0 1020474
05:00+18w41455100 0.0 1020328
08:00+22w4124562 0.0 1020492
11:00+28w69240 0.0 10201506
14:00+30w59205 0.0 10192916
17:00+30w57195 0.0 10193331
20:00+24w25365 0.0 101992
17 may, mon
mon1723:00+19wsw37495 0.0 1019109
02:00+18wsw39565 0.0 1019142
05:00+17wsw310575 0.0 1019170
08:00+23wsw410415 0.0 1019367
11:00+28wsw610275 0.0 10183125
14:00+30w792158 0.0 10173988
17:00+29w5924100 0.0 10163177
20:00+25wnw383513 0.0 1016290
18 may, tue
tue1823:00+19w3115541 0.0 1016236
02:00+17w286763 0.0 1017154
05:00+15w2675100 0.0 1017136
08:00+19wnw3858100 0.0 1017455
11:00+25nw4736100 0.0 10171784
14:00+26nw5827100 0.0 10162496
17:00+26nw582797 0.0 10162602
20:00+23wnw4104097 0.0 1016451